TimeCST,TemperatureF,Dew PointF,Humidity,Sea Level PressureIn,VisibilityMPH,Wind Direction,Wind SpeedMPH,Gust SpeedMPH,PrecipitationIn,Events,Conditions,WindDirDegrees,DateUTC
12:14 AM,12.2,8.6,85,30.25,2.5,East,12.7,-,N/A,Snow,Light Snow,90,2012-11-30 06:14:00
12:34 AM,12.2,8.6,85,30.25,5.0,East,15.0,-,N/A,Snow,Light Snow,90,2012-11-30 06:34:00
12:55 AM,12.2,8.6,85,30.24,10.0,East,11.5,-,N/A,,Mostly Cloudy,100,2012-11-30 06:55:00
1:14 AM,12.2,8.6,85,30.23,10.0,East,15.0,-,N/A,,Scattered Clouds,80,2012-11-30 07:14:00
1:34 AM,14.0,8.6,79,30.23,10.0,East,15.0,-,N/A,,Scattered Clouds,90,2012-11-30 07:34:00
1:54 AM,14.0,8.6,79,30.23,10.0,East,13.8,-,N/A,,Mostly Cloudy,80,2012-11-30 07:54:00
2:14 AM,14.0,8.6,79,30.23,10.0,East,12.7,-,N/A,,Overcast,80,2012-11-30 08:14:00
2:34 AM,14.0,10.4,86,30.21,10.0,East,15.0,-,N/A,,Overcast,90,2012-11-30 08:34:00
3:14 AM,14.0,10.4,86,30.22,10.0,East,12.7,-,N/A,,Overcast,90,2012-11-30 09:14:00
3:34 AM,14.0,10.4,86,30.21,10.0,East,11.5,-,N/A,,Overcast,90,2012-11-30 09:34:00
3:54 AM,15.8,10.4,79,30.22,10.0,East,11.5,-,N/A,,Overcast,90,2012-11-30 09:54:00
4:14 AM,15.8,10.4,79,30.20,10.0,East,11.5,-,N/A,,Overcast,90,2012-11-30 10:14:00
4:34 AM,15.8,10.4,79,30.21,10.0,East,8.1,-,N/A,,Overcast,100,2012-11-30 10:34:00
4:54 AM,15.8,10.4,79,30.21,10.0,ESE,8.1,-,N/A,,Overcast,110,2012-11-30 10:54:00
5:14 AM,15.8,10.4,79,30.20,10.0,East,9.2,-,N/A,,Overcast,100,2012-11-30 11:14:00
5:34 AM,15.8,10.4,79,30.19,10.0,East,11.5,-,N/A,,Overcast,100,2012-11-30 11:34:00
5:54 AM,15.8,10.4,79,30.18,10.0,ESE,13.8,-,N/A,,Overcast,110,2012-11-30 11:54:00
6:14 AM,15.8,10.4,79,30.17,10.0,East,11.5,-,N/A,,Overcast,100,2012-11-30 12:14:00
6:34 AM,15.8,10.4,79,30.19,10.0,East,8.1,-,N/A,,Overcast,100,2012-11-30 12:34:00
6:54 AM,15.8,12.2,86,30.18,10.0,ESE,9.2,-,N/A,,Overcast,110,2012-11-30 12:54:00
7:14 AM,15.8,12.2,86,30.17,10.0,ESE,9.2,-,N/A,,Overcast,110,2012-11-30 13:14:00
7:34 AM,15.8,12.2,86,30.16,10.0,ESE,12.7,-,N/A,,Overcast,110,2012-11-30 13:34:00
7:54 AM,15.8,12.2,86,30.16,10.0,ESE,10.4,-,N/A,,Overcast,120,2012-11-30 13:54:00
8:14 AM,15.8,12.2,86,30.16,10.0,ESE,9.2,-,N/A,,Overcast,120,2012-11-30 14:14:00
8:34 AM,15.8,12.2,86,30.17,10.0,ESE,8.1,-,N/A,,Overcast,120,2012-11-30 14:34:00
8:54 AM,17.6,12.2,79,30.17,10.0,ESE,8.1,-,N/A,,Overcast,120,2012-11-30 14:54:00
9:14 AM,17.6,12.2,79,30.19,10.0,SE,6.9,-,N/A,,Overcast,130,2012-11-30 15:14:00
9:35 AM,17.6,12.2,79,30.17,10.0,ESE,6.9,-,N/A,,Overcast,120,2012-11-30 15:35:00
9:54 AM,17.6,12.2,79,30.18,10.0,SE,4.6,-,N/A,,Overcast,130,2012-11-30 15:54:00
10:14 AM,17.6,14.0,86,30.16,10.0,ESE,9.2,-,N/A,,Overcast,120,2012-11-30 16:14:00
10:35 AM,17.6,14.0,86,30.15,10.0,ESE,9.2,-,N/A,,Overcast,120,2012-11-30 16:35:00
10:54 AM,17.6,14.0,86,30.15,10.0,SE,5.8,-,N/A,,Overcast,130,2012-11-30 16:54:00
11:14 AM,19.4,15.8,86,30.12,10.0,ESE,10.4,-,N/A,,Overcast,120,2012-11-30 17:14:00
11:35 AM,19.4,15.8,86,30.14,10.0,SE,9.2,-,N/A,,Overcast,140,2012-11-30 17:35:00
11:54 AM,21.2,17.6,86,30.12,10.0,SE,6.9,-,N/A,,Overcast,140,2012-11-30 17:54:00
12:14 PM,21.2,17.6,86,30.11,10.0,SSE,6.9,-,N/A,,Overcast,150,2012-11-30 18:14:00
12:33 PM,21.2,17.6,86,30.12,10.0,SSE,4.6,-,N/A,,Overcast,150,2012-11-30 18:33:00
12:54 PM,21.2,17.6,86,30.11,10.0,SSE,4.6,-,N/A,,Overcast,150,2012-11-30 18:54:00
1:14 PM,23.0,19.4,86,30.10,10.0,SE,5.8,-,N/A,,Overcast,140,2012-11-30 19:14:00
1:34 PM,23.0,19.4,86,30.09,10.0,SE,9.2,-,N/A,,Overcast,130,2012-11-30 19:34:00
1:54 PM,24.8,19.4,80,30.08,7.0,SE,9.2,-,N/A,,Overcast,140,2012-11-30 19:54:00
2:14 PM,24.8,19.4,80,30.08,10.0,SSE,9.2,-,N/A,,Overcast,150,2012-11-30 20:14:00
2:34 PM,24.8,19.4,80,30.06,7.0,SSE,8.1,-,N/A,,Overcast,150,2012-11-30 20:34:00
2:54 PM,24.8,21.2,86,30.05,7.0,SSE,11.5,-,N/A,,Overcast,150,2012-11-30 20:54:00
3:14 PM,24.8,21.2,86,30.04,7.0,SE,11.5,-,N/A,,Overcast,140,2012-11-30 21:14:00
3:34 PM,24.8,21.2,86,30.04,7.0,SSE,6.9,-,N/A,,Overcast,150,2012-11-30 21:34:00
3:54 PM,24.8,21.2,86,30.04,5.0,SSE,5.8,-,N/A,,Overcast,150,2012-11-30 21:54:00
4:14 PM,24.8,21.2,86,30.02,5.0,SE,9.2,-,N/A,,Overcast,130,2012-11-30 22:14:00
4:34 PM,26.6,21.2,80,30.02,5.0,SE,6.9,-,N/A,,Overcast,140,2012-11-30 22:34:00
4:54 PM,26.6,21.2,80,30.01,5.0,SE,6.9,-,N/A,,Overcast,130,2012-11-30 22:54:00
5:14 PM,26.6,21.2,80,30.01,5.0,SSE,9.2,-,N/A,,Overcast,150,2012-11-30 23:14:00
5:34 PM,26.6,23.0,86,30.00,5.0,SE,9.2,-,N/A,,Overcast,140,2012-11-30 23:34:00
6:14 PM,26.6,23.0,86,29.98,5.0,SE,8.1,-,N/A,,Overcast,130,2012-12-01 00:14:00
6:34 PM,28.4,24.8,86,29.97,5.0,SE,8.1,-,N/A,,Overcast,140,2012-12-01 00:34:00
7:14 PM,28.4,24.8,86,29.95,5.0,SE,8.1,-,N/A,,Overcast,140,2012-12-01 01:14:00
7:34 PM,28.4,24.8,86,29.95,5.0,SSE,10.4,-,N/A,,Overcast,150,2012-12-01 01:34:00
8:14 PM,28.4,24.8,86,29.93,7.0,SSE,10.4,-,N/A,,Overcast,150,2012-12-01 02:14:00
8:34 PM,28.4,26.6,93,29.92,7.0,SSE,11.5,-,N/A,,Overcast,150,2012-12-01 02:34:00
8:55 PM,30.2,26.6,86,29.91,7.0,SSE,11.5,-,N/A,,Overcast,160,2012-12-01 02:55:00
9:14 PM,30.2,26.6,86,29.91,7.0,SSE,10.4,-,N/A,,Overcast,150,2012-12-01 03:14:00
9:34 PM,30.2,26.6,86,29.90,7.0,SSE,12.7,-,N/A,,Overcast,150,2012-12-01 03:34:00
9:55 PM,30.2,26.6,86,29.90,7.0,SSE,9.2,-,N/A,,Overcast,150,2012-12-01 03:55:00
10:14 PM,30.2,26.6,86,29.90,5.0,SSE,12.7,-,N/A,,Overcast,160,2012-12-01 04:14:00
10:34 PM,30.2,26.6,86,29.90,5.0,SSE,11.5,-,N/A,,Overcast,160,2012-12-01 04:34:00
10:55 PM,30.2,26.6,86,29.90,5.0,SSE,11.5,16.1,N/A,,Overcast,160,2012-12-01 04:55:00
11:14 PM,30.2,26.6,86,29.89,5.0,SSE,12.7,-,N/A,,Overcast,160,2012-12-01 05:14:00
11:34 PM,30.2,26.6,86,29.88,5.0,SSE,12.7,-,N/A,,Overcast,150,2012-12-01 05:34:00